Location: Fort Frances
(48.6170°N, 93.4170°W)
Time: 03:58:20
(UTC-05:00)

Daily predictions for brighter satellites

Satellite Brightness Start Highest point End
(mag) Time Altitude Azimuth Time Altitude Azimuth Time Altitude Azimuth
H-2A R/B 3.7 00:08:08 23° W 00:08:08 23° W 00:11:58 10° NW
CZ-4B R/B 4.3 00:11:53 16° NNE 00:11:53 16° NNE 00:12:51 10° N
Cosmos 2360 Rocket 2.4 00:11:52 67° NNW 00:11:52 67° NNW 00:17:10 10° NNE
ALOS 2 4.1 00:19:59 33° N 00:19:59 33° N 00:22:34 10° N
ATLAS 3B R/B 4.0 00:24:20 30° E 00:24:20 30° E 00:28:49 10° NE
Cosmos 1818 4.4 00:18:43 10° NNW 00:23:49 44° NE 00:23:49 44° NE
Cosmos 2026 Rocket 4.2 00:22:57 10° N 00:28:27 59° NE 00:28:27 59° NE
Cosmos 2056 Rocket 4.3 00:24:36 10° NNW 00:28:49 49° NNE 00:28:49 49° NNE
Cosmos 2219 Rocket 3.4 00:33:22 32° ENE 00:33:22 32° ENE 00:36:34 10° NE
Cosmos 2263 Rocket 4.3 00:29:49 10° WNW 00:32:32 15° W 00:32:32 15° W
Terra 4.1 00:33:40 16° W 00:33:40 16° W 00:36:02 10° NW
GEOS 3 Rocket 4.4 00:31:24 10° NNE 00:36:17 46° NW 00:36:41 45° NW
Cosmos 2322 Rocket 4.4 00:41:11 10° W 00:45:25 21° NW 00:49:39 10° N
SL-16 R/B 4.2 00:51:42 18° ENE 00:51:42 18° ENE 00:53:47 10° NE
Cosmos 2237 Rocket 3.4 00:54:16 33° ENE 00:54:16 33° ENE 00:57:40 10° NE
Cosmos 2297 4.3 00:48:35 10° NNW 00:53:35 52° NNE 00:53:35 52° NNE
Lacrosse 4 Rocket 3.4 00:55:58 29° N 00:55:58 29° N 00:58:36 10° NNE
Cosmos 2333 Rocket 3.2 00:57:40 40° NE 00:57:40 40° NE 01:01:29 10° NE
Cosmos 1655 Rocket 4.2 01:01:11 10° NNW 01:06:49 69° NW 01:06:49 69° NW
COSMOS 2428 3.4 01:12:55 50° NW 01:12:55 50° NW 01:18:04 10° NNE
ATLAS CENTAUR R/B 3.7 01:12:57 10° NNW 01:16:32 22° NNE 01:17:01 21° NE
Cosmos 2278 Rocket 3.3 01:18:36 10° NW 01:22:10 36° WNW 01:22:10 36° WNW
COSMOS 2455 3.2 01:26:46 59° NE 01:26:46 59° NE 01:31:36 10° NE
CZ-2C R/B 4.0 01:30:10 42° NNW 01:30:10 42° NNW 01:33:30 10° NNW
Cosmos 1452 Rocket 4.4 01:24:24 10° NNW 01:28:08 46° NNW 01:28:08 46° NNW
CZ-2C R/B 3.2 01:37:35 10° NNE 01:42:07 60° N 01:42:07 60° N
Cosmos 2279 Rocket 4.3 01:46:37 58° NW 01:46:37 58° NW 01:52:13 10° N
CZ-4C R/B 3.4 01:53:40 34° E 01:53:40 34° E 01:57:41 10° NE
Cosmos 2221 4.3 01:55:03 30° N 01:55:03 30° N 01:57:24 10° N
Cosmos 2360 Rocket 4.5 01:53:36 12° WNW 01:56:34 18° NW 02:00:20 10° N
Cosmos 2266 Rocket 4.1 01:57:44 10° NNW 02:03:33 69° NW 02:03:33 69° NW
Cosmos 2369 Rocket 3.6 02:00:55 10° NNW 02:06:02 35° NE 02:08:17 25° E
ATLAS 3B R/B 2.9 02:11:34 62° W 02:12:40 71° NW 02:20:02 10° NE
Cosmos 2219 Rocket 3.3 02:15:04 34° NW 02:15:20 34° NW 02:20:26 10° NNE
Exosat Rocket 4.3 02:11:54 10° NNW 02:15:34 49° NW 02:15:34 49° NW
Cosmos 1943 Rocket 4.3 02:16:30 10° N 02:21:04 24° NE 02:25:35 10° E
Cosmos 1607 3.9 02:25:41 78° ENE 02:25:41 78° ENE 02:31:29 10° NE
Cosmos 1151 Rocket 4.5 02:28:05 35° NE 02:28:05 35° NE 02:30:59 10° NNE
SL-16 R/B 2.4 02:33:34 67° NNW 02:33:34 67° NNW 02:38:51 10° NNE
Lacrosse 4 Rocket 4.4 02:32:54 10° NW 02:34:18 11° NNW 02:35:44 10° N
Cosmos 2237 Rocket 3.2 02:36:05 35° WNW 02:36:27 35° NW 02:41:41 10° NNE
Cosmos 2333 Rocket 3.5 02:39:39 30° WNW 02:40:27 31° NW 02:45:33 10° NNE
SL-08 R/B 3.8 02:46:42 58° NNE 02:46:42 58° NNE 02:50:42 10° N
Cosmos 1048 Rocket 4.1 02:46:49 74° NE 02:46:49 74° NE 02:51:43 10° NNE
PSLV R/B 4.3 02:46:32 10° N 02:50:27 58° N 02:50:27 58° N
ATLAS CENTAUR R/B 3.5 02:51:45 10° NW 02:53:17 21° NW 02:53:17 21° NW
ATLAS 5 CENTAUR R/B 3.8 02:57:08 19° ESE 02:57:13 19° ESE 03:00:45 10° ENE
Cosmos 1331 Rocket 4.0 02:56:21 10° NNW 03:01:40 78° ENE 03:01:45 77° E
AQUA 4.3 02:57:30 10° NNE 03:02:01 55° E 03:02:01 55° E
Cosmos 1340 Rocket 4.3 02:58:48 10° N 03:01:05 33° N 03:01:05 33° N
BREEZE-M DEB (TANK) 3.8 03:04:03 55° S 03:04:52 59° SSE 03:08:51 10° ENE
ERBS 4.4 03:09:24 28° NE 03:09:24 28° NE 03:11:17 10° NE
ARIANE 5 R/B 4.0 03:03:57 10° NNE 03:08:33 30° E 03:10:10 25° SE
Cosmos 158 Rocket 3.9 03:11:18 79° ENE 03:11:18 79° ENE 03:16:06 10° NNE
USA 238 DEB 4.0 03:09:44 48° W 03:11:34 63° NW 03:18:35 10° NE
USA 238 3.9 03:09:51 48° W 03:11:40 63° NW 03:18:41 10° NE
COSMOS 2455 4.4 03:09:53 21° WNW 03:12:12 27° NW 03:17:17 10° NNE
Cosmos 1269 Rocket 4.4 03:12:45 53° WNW 03:12:45 53° WNW 03:17:54 10° NNE
In-Cosmos 22 Rocket 4.0 03:09:14 10° N 03:14:35 85° ENE 03:15:00 76° SSE
Cosmos 1603 3.6 03:15:41 74° WSW 03:16:06 79° WNW 03:21:53 10° NNE
Cosmos 1867 4.1 03:17:16 46° WNW 03:17:55 48° NW 03:23:16 10° NNE
IRS-P3 Rocket 4.4 03:12:49 10° NNE 03:18:13 89° ESE 03:18:35 79° SSW
IRS-P3 4.0 03:12:54 10° NNE 03:18:16 80° WNW 03:18:32 78° WSW
CZ-2D R/B 3.6 03:15:30 10° NNE 03:20:07 30° E 03:22:22 22° SE
CZ-3A R/B 4.3 03:15:04 37° S 03:20:26 63° ESE 04:29:57 10° ENE
ADEOS 4.0 03:16:12 10° NNE 03:21:21 55° E 03:22:19 48° SE
Cosmos 1726 3.1 03:25:28 46° NNE 03:25:28 46° NNE 03:28:12 10° NNE
Cosmos 1869 Rocket 4.0 03:20:39 10° NNW 03:24:13 55° NNW 03:24:13 55° NNW
NOSS 3-2 (A) 3.4 03:24:12 61° SW 03:25:25 88° SE 03:32:15 10° NE
Cosmos 1892 3.6 03:22:16 10° N 03:25:55 46° ENE 03:25:55 46° ENE
CENTAUR R/B 3.9 03:33:42 21° SSE 03:36:29 29° ESE 03:42:10 10° NE
CZ-4C R/B 2.9 03:38:51 37° W 03:40:31 47° NW 03:46:39 10° NE
S3M 4.1 03:41:00 49° WSW 03:42:14 56° WNW 03:48:29 10° N
Meteor 1-4 Rocket 4.2 03:43:40 26° NNW 03:43:40 26° NNW 03:45:37 10° N
NPP 3.7 03:37:56 10° N 03:43:15 60° WNW 03:44:02 53° WSW
Meteor 2-3 Rocket 3.7 03:37:53 10° NNW 03:43:39 69° W 03:44:53 53° SSW
NOSS 3-2 (C) 3.5 03:41:58 51° SW 03:43:44 88° NW 03:50:38 10° NE
Cosmos 1943 3.1 03:42:29 54° SSW 03:43:48 80° ESE 03:49:29 10° NNE
Cosmos 2242 Rocket 3.9 03:44:45 53° SSE 03:45:38 66° E 03:50:11 10° NNE
Cosmos 1300 3.6 03:46:47 40° NW 03:46:47 40° NW 03:49:42 10° N
Resurs 1-4 Rocket 2.7 03:42:21 10° NNE 03:47:30 51° E 03:49:54 29° SSE
Cosmos 2369 Rocket 2.4 03:44:52 10° NW 03:49:58 47° W 03:49:58 47° W
Cosmos 2251 Rocket 3.4 03:50:19 58° SW 03:51:16 74° WNW 03:56:33 10° NNE
CBERS-1 4.2 03:47:03 10° N 03:52:04 55° WNW 03:52:48 50° WSW
BREEZE-M DEB (TANK) 3.1 03:51:02 43° WNW 03:52:15 70° N 03:57:51 10° ENE
SL-16 R/B 2.4 03:54:57 27° S 03:58:34 78° WSW 04:04:50 10° NNW
Cosmos 1455 2.7 03:57:48 46° SE 03:58:35 56° E 04:02:25 10° NNE
Cosmos 1553 Rocket 4.5 03:59:18 37° WSW 04:00:37 42° WNW 04:06:23 10° N
BREEZE-M DEB (TANK) 3.3 04:01:15 53° SSW 04:01:15 53° SSW 04:07:21 10° SE
Cosmos 1733 Rocket 3.1 03:56:57 10° N 04:01:20 77° ENE 04:03:08 35° SSE
ERS-1 4.3 03:56:32 10° NNE 04:01:32 81° WNW 04:02:54 49° SSW
Cosmos 1709 Rocket 3.9 03:56:12 10° NNW 04:02:34 75° W 04:06:00 29° S
ATLAS 3B R/B 4.2 03:58:48 12° WNW 04:04:39 30° NNW 04:10:54 10° NE
Cosmos 1943 Rocket 2.1 03:59:47 10° NNW 04:05:29 79° WSW 04:11:07 10° SSE
Cosmos 1408 4.3 04:04:28 10° N 04:07:55 33° ENE 04:11:22 10° SE
Cosmos 1707 Rocket 4.0 04:09:30 42° W 04:09:48 43° WNW 04:14:06 10° N
Cosmos 494 Rocket 4.1 04:11:58 43° SW 04:13:33 64° WNW 04:18:48 10° NNE
Cosmos 1271 Rocket 4.2 04:14:22 25° WNW 04:14:22 25° WNW 04:17:29 10° NNW
Cosmos 724 4.3 04:14:11 37° SW 04:16:40 83° NW 04:22:48 10° NE
ERS-2 2.2 04:13:40 10° N 04:17:22 60° WNW 04:17:40 57° W
SL-16 R/B 4.2 04:15:27 13° WNW 04:18:22 18° NW 04:22:10 10° N
CZ-2D R/B 4.2 04:16:59 10° NNE 04:21:19 53° E 04:24:04 20° S
Cosmos 2292 Rocket 4.2 04:22:00 10° NNW 04:23:40 26° NW 04:23:40 26° NW
Cosmos 2074 Rocket 4.1 04:19:25 10° N 04:25:41 78° E 04:31:56 10° SSE
Cosmos 1825 2.7 04:24:38 10° N 04:28:24 58° ENE 04:32:09 10° SSE
Cosmos 2184 Rocket 4.1 04:25:39 10° N 04:32:06 83° E 04:38:27 10° S
Cosmos 1908 Rocket 3.7 04:27:43 10° N 04:32:08 75° E 04:36:29 10° SSE
Cosmos 1656 Rocket 3.6 04:27:10 10° NNW 04:32:39 86° ENE 04:38:04 10° SSE
Cosmos 1184 Rocket 3.2 04:32:36 10° NNW 04:35:55 45° W 04:35:57 45° W
Meteor 2-10 4.4 04:36:17 29° SW 04:38:47 50° WNW 04:43:59 10° N
UNK 4.4 04:39:10 31° WSW 04:40:05 34° W 04:44:18 10° NNW
ATLAS 5 CENTAUR R/B 1.9 04:38:42 30° SW 04:41:11 78° NW 04:46:37 10° NE
IRS-1D 3.9 04:37:21 10° N 04:42:23 50° WNW 04:45:08 26° SW
Okean O Rocket 2.2 04:39:08 10° NNE 04:43:34 57° E 04:47:57 10° S
SeaSat 1 2.3 04:38:51 10° SSE 04:43:47 77° WSW 04:48:45 10° NNW
ERBS 4.4 04:42:50 13° WNW 04:45:09 23° N 04:48:02 10° NE
ARIANE 5 R/B 3.1 04:42:51 10° N 04:47:48 43° WNW 04:50:30 24° WSW
USA 234 3.3 04:42:06 10° ENE 04:48:41 76° SE 04:53:25 20° SW
Cosmos 2221 Rocket 4.3 04:44:36 10° S 04:48:54 53° E 04:53:12 10° NNE
MOZ.5/SAFIR/RUBIN 5/SL-8 3.6 04:46:07 10° S 04:50:45 78° WSW 04:55:25 10° NNW
Cosmos 1703 Rocket 3.9 04:49:32 10° S 04:53:59 67° E 04:58:27 10° NNE
Cosmos 389 Rocket 2.6 04:54:56 29° SW 04:56:27 53° WNW 04:59:56 10° N
Sich 1 Rocket 3.8 04:54:58 10° NNW 04:59:12 48° W 05:03:16 11° SSW
CZ-2D R/B 2.6 04:55:22 10° N 05:00:21 43° WNW 05:03:41 19° SW
UNKNOWN OBJECT B 3.2 04:59:30 10° N 05:03:01 40° WNW 05:04:54 23° SW
EO 1 Del DPAF 4.3 05:02:57 23° WSW 05:03:55 26° W 05:07:14 10° NW
Cosmos 2285 Rocket 4.1 04:58:28 10° NNW 05:04:44 55° WSW 05:10:55 10° S
Abrixas rocket 2.6 05:05:14 23° W 05:06:55 45° SSW 05:10:07 10° SE
Cosmos 1862 3.5 05:03:05 10° NNW 05:06:55 47° W 05:10:44 10° SSW
Aureole 3 Rocket 3.8 05:00:36 10° S 05:06:57 74° E 05:11:27 10° NNE
ADEOS Rocket 4.3 05:04:30 10° NNE 05:12:08 57° E 05:19:42 10° S
Cosmos 1174 4.1 05:11:18 15° SW 05:15:40 89° NW 05:19:48 10° NE
Cosmos 1869 4.4 05:15:01 18° WSW 05:17:00 27° WNW 05:20:26 10° NNW
COSMOS 2487 3.5 05:13:40 10° S 05:17:09 47° ESE 05:20:39 10° NNE
ARGOS Delta rocket 4.0 05:15:15 10° N 05:19:29 47° WNW 05:23:27 11° SW
Cosmos 2278 4.3 05:14:45 10° NNW 05:20:27 63° ENE 05:26:07 10° SE
Cosmos 1190 Rocket 4.1 05:16:36 10° SSW 05:21:47 78° ESE 05:27:00 10° NNE
ASTRO F (AKARI) 4.4 05:18:36 10° S 05:22:05 63° WSW 05:25:26 10° NNW
Okean 1-7 3.1 05:19:40 10° S 05:23:59 86° ESE 05:28:24 10° N
Meteor 1-14 Rocket 4.3 05:20:04 10° NNW 05:25:55 83° W 05:31:51 10° S
CENTAUR R/B 2.7 05:20:54 14° SW 05:26:30 71° NW 05:33:41 10° NE
Resurs 1-4 Rocket 3.2 05:22:42 10° N 05:27:05 27° WNW 05:30:58 12° WSW
SL-27 R/B 3.4 05:27:22 15° WSW 05:29:55 32° WNW 05:33:13 10° N
CZ-4C R/B 4.2 05:25:56 10° WNW 05:30:40 23° N 05:35:54 10° NE
Cosmos 1933 4.0 05:28:55 11° SW 05:32:40 38° WNW 05:36:31 10° N
Thor Agena Rocket 3.6 05:27:57 10° S 05:33:02 56° W 05:38:12 10° NNW
Okean 2 Rocket 3.2 05:29:00 10° NNW 05:33:24 54° W 05:37:49 10° S
Cosmos 1455 4.2 05:32:51 11° W 05:34:41 14° WNW 05:36:55 10° NNW
Cosmos 2369 4.1 05:29:24 10° NNW 05:35:10 72° ENE 05:40:53 10° SE
COSMOS 2406 3.4 05:30:21 10° SW 05:36:03 60° WNW 05:41:46 10° NNE
CZ-4B R/B 2.8 05:33:00 10° N 05:36:36 55° WNW 05:40:18 10° SSW
ADEOS II 2.6 05:32:48 10° NNE 05:38:04 66° ESE 05:43:17 10° S
Meteor 2-10 Rocket 4.3 05:34:42 10° S 05:40:24 64° E 05:46:00 10° NNE
CZ-4B R/B 3.2 05:35:18 10° N 05:40:32 61° WNW 05:45:44 10° SSW
USA 32 4.3 05:36:43 10° SSW 05:41:47 49° W 05:46:54 10° N
Cosmos 1408 4.1 05:40:09 10° NW 05:42:55 20° W 05:45:42 10° SW
CZ-4B DEB 4.3 05:37:34 10° N 05:43:01 64° WNW 05:48:23 10° SSW
SL-16 R/B 4.1 05:40:09 10° WSW 05:43:14 14° W 05:46:21 10° NW
Cosmos 1943 Rocket 3.8 05:45:45 10° WNW 05:48:16 13° W 05:50:46 10° WSW
Nadezhda 1 Rocket 4.4 05:43:01 10° SSW 05:49:03 48° WNW 05:55:14 10° N
BREEZE-M DEB (TANK) 4.4 05:46:43 10° SW 05:49:27 43° SE 05:55:41 10° ENE
Cosmos 1782 Rocket 4.4 05:45:42 10° NNW 05:49:30 30° W 05:53:16 10° SSW
Cosmos 1782 4.0 05:46:48 10° SSE 05:50:40 48° E 05:54:36 10° NNE
Cosmos 1656 4.5 05:46:03 10° NNW 05:51:26 56° ENE 05:56:46 10° SE
Cosmos 2366 rocket 4.5 05:50:37 10° N 05:56:51 68° ENE 06:02:59 10° SSE
